Regional Weather Roundup
Issued by NWS Goodland, KS

Home | Current Version | Previous Version | Text Only | Print | Product List | Glossary Off
Versions: 1 2 3 4 5 6 7 8 9 10 11 12 13 14 15 16 17 18 19 20 21 22 23 24 25 26 27 28 29 30 31 32 33 34 35 36 37 38 39 40 41 42 43 44 45 46 47 48 49 50

000
ASUS43 KGLD 180908
RWRGLD

GOODLAND FORECAST AREA HOURLY WEATHER ROUNDUP
NATIONAL WEATHER SERVICE GOODLAND KS
300 AM MDT THU SEP 18 2014

...OFFICIAL OBSERVATIONS...

CITY           SKY/WX    TMP DP  RH WIND       PRES   REMARKS
GOODLAND KS    FOG       63  63 100 N3        29.97F VSB 1/4
HILL CITY KS   CLOUDY    66  63  90 E10       29.92F
IMPERIAL NEB   CLOUDY    65  64  97 S10       29.96F FOG
MCCOOK NEB     FOG       63  62  97 E9        29.94F VSB 1/2
AKRON CO       CLEAR     58  45  62 W8        30.01F
BURLINGTON CO  PTCLDY    56  53  90 S3        29.98F
LIMON CO       CLEAR     53  42  66 NW3       30.07S
$$

...UNOFFICIAL OBSERVATIONS...

CITY           SKY/WX    TMP DP  RH WIND       PRES   REMARKS
GOVE KS          N/A     68  32  26 MISG        N/A
SHARON SPRINGS   N/A     62  60  94 CALM        N/A
TRIBUNE KS     CLEAR     55  55 100 NW6       29.96F
WAKEENEY KS      N/A     67  66  96 MISG        N/A
TRENTON NEB      N/A     63  32  31 CALM        N/A
YUMA CO          N/A     54  50  86 CALM        N/A
$$



USA.gov is the U.S. government's official web portal to all federal, state and local government web resources and services.